Westfield, MA

5:39 PM EDT on September 25, 2017 (GMT -0400)
Barnes Municipal

Weather History for KBAF - October, 2011

Change the Weather History Date:

Friday, October 28, 2011

  Actual Average Record
Temperature  
Mean Temperature 37 °F -  
Max Temperature 46 °F 55 °F 75 °F (2010)
Min Temperature 28 °F 34 °F 25 °F (2001)
Degree Days  
Heating Degree Days 28    
Moisture  
Dew Point 28 °F    
Average Humidity 73    
Maximum Humidity 96    
Minimum Humidity 46    
Precipitation  
Precipitation 0.01 in - - ()
Sea Level Pressure  
Sea Level Pressure 30.17 in    
Wind  
Wind Speed 5 mph (NW)    
Max Wind Speed 14 mph    
Max Gust Speed 21 mph    
Visibility 10 miles    
Events Snow    
Averages and records for this station are not official NWS values.
T = Trace of Precipitation, MM = Missing Value Source: NWS Daily Summary

Daily Weather History Graph

Daily Weather History Graph

Search for Another Location

Airport or City:

Trip Planner

Search our weather history database for the weather conditions in past years. The results will help you decide how hot, cold, wet, or windy it might be!

Date:

Astronomy

Oct. 28, 2011 Rise Set
Actual Time 7:18 AM EDT 5:50 PM EDT
Civil Twilight 6:49 AM EDT 6:18 PM EDT
Nautical Twilight 6:16 AM EDT 6:51 PM EDT
Astronomical Twilight 5:44 AM EDT 7:24 PM EDT
Moon 9:34 AM EDT (10/28) 7:07 PM EDT (10/28)
Length of Visible Light 11h 29m
Length of Day
10h 31m
Waxing Crescent, 5% of the Moon is Illuminated
Oct 28
Waxing Crescent
Nov 2
First Quarter
Nov 10
Full
Nov 18
Last Quarter
Nov 25
New

Hourly Weather History & Observations

Time (EDT) Temp. Windchill Dew Point Humidity Pressure Visibility Wind Dir Wind Speed Gust Speed Precip Events Conditions
12:53 AM 33.1 °F - 30.0 °F 89% 29.96 in 10.0 mi Calm Calm - N/A   Clear
1:53 AM 35.1 °F 26.9 °F 28.9 °F 78% 29.99 in 10.0 mi NNW 11.5 mph - 0.00 in Snow Light Snow
2:53 AM 35.1 °F 25.9 °F 28.0 °F 76% 30.01 in 10.0 mi NNW 13.8 mph - 0.01 in Snow Light Snow
3:53 AM 33.1 °F 28.7 °F 28.0 °F 82% 30.04 in 10.0 mi WNW 4.6 mph - 0.00 in   Clear
4:53 AM 30.9 °F - 28.0 °F 89% 30.06 in 10.0 mi Calm Calm - N/A   Clear
5:53 AM 28.0 °F - 27.0 °F 96% 30.11 in 7.0 mi Calm Calm - N/A   Clear
6:53 AM 28.0 °F - 26.1 °F 92% 30.13 in 9.0 mi Calm Calm - N/A   Clear
7:53 AM 28.0 °F - 26.1 °F 92% 30.16 in 10.0 mi Calm Calm - N/A   Clear
8:53 AM 34.0 °F - 28.9 °F 82% 30.17 in 10.0 mi Calm Calm - N/A   Clear
9:53 AM 39.0 °F 35.7 °F 28.0 °F 65% 30.19 in 10.0 mi NW 4.6 mph - N/A   Clear
10:53 AM 41.0 °F 35.2 °F 28.0 °F 60% 30.20 in 10.0 mi North 9.2 mph - N/A   Clear
11:53 AM 42.1 °F 37.1 °F 26.1 °F 53% 30.21 in 10.0 mi NW 8.1 mph - N/A   Clear
12:53 PM 44.1 °F 37.7 °F 26.1 °F 49% 30.21 in 10.0 mi NW 12.7 mph 20.7 mph N/A   Clear
1:53 PM 46.0 °F 40.6 °F 27.0 °F 47% 30.19 in 10.0 mi West 11.5 mph - N/A   Partly Cloudy
2:53 PM 46.9 °F - 27.0 °F 46% 30.19 in 10.0 mi NNW 11.5 mph - N/A   Clear
3:53 PM 44.1 °F 37.4 °F 25.0 °F 47% 30.21 in 10.0 mi NW 13.8 mph - N/A   Clear
4:53 PM 43.0 °F 38.8 °F 26.1 °F 51% 30.22 in 10.0 mi North 6.9 mph - N/A   Partly Cloudy
5:53 PM 39.9 °F - 28.0 °F 63% 30.22 in 10.0 mi Calm Calm - N/A   Clear
6:53 PM 37.0 °F - 30.9 °F 79% 30.25 in 10.0 mi Calm Calm - N/A   Clear
7:53 PM 37.0 °F - 30.9 °F 79% 30.26 in 10.0 mi Calm Calm - N/A   Clear
8:53 PM 36.0 °F 33.3 °F 30.9 °F 82% 30.27 in 10.0 mi WSW 3.5 mph - N/A   Clear
9:53 PM 35.1 °F - 30.9 °F 85% 30.28 in 10.0 mi Calm Calm - N/A   Clear
10:53 PM 35.1 °F - 32.0 °F 89% 30.27 in 10.0 mi Calm Calm - N/A   Clear
11:53 PM 33.1 °F - 30.9 °F 92% 30.28 in 10.0 mi Calm Calm - N/A   Clear